sat.trackr.live / text

‹ back to catalog

ONEWEB-0010

NORAD 44058 · 2019-010B

PAYLOAD ACTIVE UNKNOWN

§ Identity

Operator
Country
UK
Launch date
2019-02-27
Launch site
FRGUI
Launch vehicle
Mass (kg)
RCS (m²)

Purposes: comms

External: N2YO · Heavens-Above · Gunter

§ Orbital elements

Epoch: 2026-09-20T04:46:08.746176Z

Period
109.37 min
Inclination
87.9153°
Eccentricity
0.0001842
Mean motion
13.16593421 rev/d
Perigee alt
1,196.4 km
Apogee alt
1,199.2 km
Semi-major
7,575.9 km
B*
-7.3708e-5
RAAN
209.9186°
Arg perigee
69.0769°
Mean anomaly
291.0559°
Rev number
36,411

§ Raw data

ONEWEB-00101 44058U 19010B   26263.19871234 -.00000015  00000+0 -73708-4 0  99922 44058  87.9153 209.9186 0001842  69.0769 291.0559 13.16593421364114

JSON: /api/v1/satellites/44058 · /tle

For live sub-satellite position, see the globe view (requires WebGL).

§ Visibility from observer

Set your observer location to see the next 7 days of passes ≥ 10°. The values pass through the URL so the page stays shareable.

No JS? Fill the form by hand. The geolocation button needs JavaScript.